[[{"header":{"parameterUnit":"m.s-1","parameterCategory":1,"la1":30.2991,"la2":30.254,"lo1":-89.0895,"lo2":-89.0444,"dy":0.0017,"dx":0.0017,"nx":28,"ny":28,"refTime":"2026-02-09T09:00:00:Z","depth":0,"parameterNumber":2,"parameterNumberName":"U-component_of_WINDS"},"data":[0,0,0,0,0,0,0,0,0,0,0,0,0,0,0,0,0,0,0,0,0,0,0,0,0,0,0,0,0,0,0,0,0,0,0,0,0,0,0,0,0,0,0,0,0,0,0,0,0,0,0,0,0,0,0,0,0,0,0.68,0.6802,0,0.6957,0.6959,0.696,0.6996,0.6994,0.6993,0.6992,0.7159,0.7164,0.717,0,0,0,0,0,0,0,0,0,0,0,0,0,0.6537,0.6542,0.68,0.6802,0.6804,0.6957,0.6959,0.6961,0.6996,0.6994,0.6993,0.6992,0.7157,0.7164,0.717,0,0,0,0,0,0,0,0,0,0,0,0,0,0.6668,0.6543,0.6799,0.6839,0.6844,0.6956,0.6959,0.6961,0.6996,0.6994,0.6993,0.6991,0.7155,0.7163,0.7171,0.7256,0,0,0.7196,0.72,0,0,0,0,0,0,0,0,0.6661,0.6678,0.6832,0.6837,0.6843,0.6955,0.6927,0.706,0.6996,0.6939,0.6992,0.699,0.7093,0.7106,0.714,0.7264,0.7271,0.7197,0.7202,0.7206,0.7208,0,0,0,0,0,0,0,0.6652,0.6672,0.6862,0.6834,0.6841,0.6852,0.6868,0.6953,0.7024,0.6944,0.6946,0.6964,0.7096,0.7131,0.7144,0.7274,0.7197,0.7204,0.7209,0.7213,0.7478,0.748,0,0,0,0,0,0,0.6635,0.6664,0.6857,0.6867,0.6746,0.6858,0.6877,0.6921,0.7023,0.7037,0.6966,0.6965,0.7118,0.7134,0.715,0.7257,0.7206,0.7213,0.7218,0.7476,0.7478,0.748,0,0,0,0,0,0,0.6629,0.6652,0.6851,0.6766,0.6792,0.6864,0.6913,0.6925,0.696,0.7039,0.7053,0.6989,0.7117,0.7138,0.7229,0.7263,0.7217,0.7225,0.7473,0.7476,0.7479,0.7471,0,0,0,0,0,0,0.6621,0.6649,0.6681,0.6766,0.6797,0.6926,0.6915,0.6929,0.6974,0.6975,0.7064,0.7078,0.7118,0.7217,0.7238,0.7274,0.7231,0.747,0.7475,0.7478,0.7468,0.7473,0.7477,0,0,0,0,0,0.6612,0.6673,0.6682,0.6705,0.6837,0.6927,0.6945,0.6988,0.6976,0.7009,0.706,0.7075,0.7256,0.7226,0.725,0.7288,0.7469,0.7473,0.7478,0.7466,0.7472,0.7477,0,0,0,0,0,0,0.6591,0.6685,0.6696,0.6786,0.6848,0.6933,0.6976,0.6993,0.7061,0.7059,0.7112,0.7132,0.722,0.7264,0.7229,0.7377,0.7362,0.7372,0.7345,0.7351,0.7356,0.7344,0.7238,0,0,0,0,0,0.6596,0.666,0.674,0.6812,0.6842,0.6904,0.6945,0.6973,0.704,0.7067,0.7125,0.7191,0.7264,0.731,0.7381,0.7475,0.7496,0.7514,0.7518,0.7521,0.7529,0.7584,0.7593,0.7496,0.7496,0.7496,0,0,0.6609,0.6668,0.6706,0.6809,0.686,0.6927,0.6926,0.6996,0.7047,0.7079,0.7168,0.7213,0.7291,0.7384,0.7428,0.7423,0.7561,0.7527,0.7529,0.7536,0.759,0.7599,0.7607,0.7499,0.7499,0.7498,0,0,0.6667,0.6717,0.6783,0.6835,0.6912,0.6953,0.6968,0.7051,0.7082,0.7172,0.7197,0.726,0.7382,0.7437,0.7481,0.7561,0.7577,0.7582,0.7606,0.7659,0.7666,0.7673,0.7703,0.7713,0.759,0.759,0.759,0,0.6673,0.6773,0.6816,0.6885,0.6931,0.696,0.7029,0.7078,0.7175,0.7207,0.7199,0.7354,0.7409,0.7516,0.7536,0.757,0.7592,0.7572,0.7661,0.7669,0.7676,0.7705,0.7716,0.759,0.759,0.759,0.759,0,0.6778,0.6847,0.6891,0.6982,0.7033,0.7102,0.7157,0.7204,0.7228,0.727,0.7363,0.743,0.7515,0.7542,0.7567,0.7654,0.7648,0.765,0.7637,0.7685,0.7713,0.7724,0.759,0.759,0.759,0.759,0,0,0.6826,0.694,0.6956,0.6998,0.7086,0.7141,0.7213,0.7294,0.7334,0.7401,0.7463,0.7567,0.7569,0.7619,0.7651,0.7697,0.7757,0.7694,0.7696,0.7704,0.7859,0.7857,0.7869,0.7768,0.7771,0.7773,0.7853,0,0.6894,0.702,0.7061,0.7167,0.7232,0.7262,0.7325,0.7387,0.7429,0.7492,0.7539,0.7612,0.761,0.764,0.7687,0.7739,0.7789,0.7734,0.7829,0.7832,0.7808,0.7883,0.7881,0.7953,0.7864,0.7866,0.7867,0,0.6991,0.7057,0.7168,0.7249,0.7278,0.7333,0.7412,0.7472,0.7544,0.7571,0.7627,0.7655,0.7734,0.7715,0.7825,0.7787,0.7828,0.786,0.7864,0.7875,0.7852,0.7897,0.7977,0.7988,0.7884,0.7883,0.7882,0,0.7015,0.7133,0.7215,0.725,0.7346,0.7385,0.7427,0.7497,0.7544,0.7614,0.7645,0.7724,0.7767,0.7829,0.7878,0.786,0.7984,0.7969,0.8011,0.801,0.8036,0.8033,0.8124,0.8061,0.8061,0.8061,0.8061,0,0.7088,0.7155,0.7227,0.7278,0.7355,0.7403,0.7479,0.7523,0.7586,0.7647,0.7679,0.7737,0.7798,0.7864,0.7904,0.799,0.8009,0.8035,0.8045,0.8032,0.8029,0.806,0.8057,0.8064,0.8063,0.8063,0.8062,0,0.7128,0.7179,0.727,0.7354,0.7377,0.743,0.7503,0.7554,0.7598,0.7675,0.7696,0.7765,0.7845,0.79,0.8004,0.803,0.8123,0.8132,0.8098,0.8103,0.8141,0.8137,0.8256,0.8275,0.8199,0.8199,0.82,0,0.7171,0.7223,0.7312,0.7354,0.7396,0.7464,0.7512,0.7562,0.7611,0.7698,0.774,0.7821,0.7889,0.8016,0.8077,0.8156,0.8168,0.8204,0.818,0.8166,0.8169,0.8166,0.8172,0.8208,0.8208,0.8209,0.8209,0,0.7242,0.7264,0.733,0.7406,0.7462,0.7524,0.7587,0.7621,0.7683,0.7737,0.7818,0.787,0.7975,0.8057,0.8142,0.8189,0.821,0.8216,0.823,0.8218,0.8196,0.8209,0.8109,0.8213,0.8213,0.8213,0.8212,0.8212,0.7285,0.7333,0.7403,0.7477,0.7529,0.7587,0.764,0.769,0.7757,0.7845,0.7872,0.7956,0.803,0.8146,0.8194,0.8263,0.826,0.828,0.8286,0.829,0.829,0.8185,0.8279,0.8279,0.8279,0.8279,0.8279,0,0.7358,0.7405,0.7471,0.7558,0.7616,0.7629,0.77,0.7749,0.7822,0.7888,0.7954,0.8048,0.8127,0.8194,0.8277,0.832,0.8332,0.834,0.8337,0.8348,0.8287,0.8267,0.8329,0.8329,0.8329,0.8329,0.8329,0.8329,0.7403,0.7485,0.7517,0.7626,0.7674,0.7755,0.7794,0.785,0.7902,0.8005,0.807,0.8113,0.818,0.8268,0.8343,0.8361,0.839,0.8396,0.8416,0.8358,0.8352,0.8347,0.8328,0.8402,0.8402,0.8472,0.8472,0.8473]},{"header":{"parameterUnit":"m.s-1","parameterCategory":1,"la1":30.2991,"la2":30.254,"lo1":-89.0895,"lo2":-89.0444,"dy":0.0017,"dx":0.0017,"nx":28,"ny":28,"refTime":"2026-02-09T09:00:00:Z","depth":0,"parameterNumber":3,"parameterNumberName":"V-component_of_WINDS"},"data":[0,0,0,0,0,0,0,0,0,0,0,0,0,0,0,0,0,0,0,0,0,0,0,0,0,0,0,0,0,0,0,0,0,0,0,0,0,0,0,0,0,0,0,0,0,0,0,0,0,0,0,0,0,0,0,0,0,0,0.7376,0.7378,0,0.7499,0.75,0.7501,0.7523,0.7522,0.7521,0.752,0.7647,0.7651,0.7656,0,0,0,0,0,0,0,0,0,0,0,0,0,0.7162,0.7166,0.7376,0.7378,0.7379,0.7498,0.75,0.7502,0.7523,0.7522,0.7521,0.752,0.7646,0.7651,0.7656,0,0,0,0,0,0,0,0,0,0,0,0,0,0.7267,0.7167,0.7376,0.7404,0.7408,0.7498,0.75,0.7502,0.7524,0.7522,0.7521,0.7519,0.7644,0.765,0.7657,0.7727,0,0,0.7677,0.7679,0,0,0,0,0,0,0,0,0.7261,0.7275,0.7399,0.7403,0.7407,0.7494,0.7471,0.7578,0.7524,0.748,0.752,0.7519,0.7598,0.7608,0.7634,0.7733,0.7739,0.7677,0.7681,0.7684,0.7686,0,0,0,0,0,0,0,0.7253,0.7269,0.7425,0.74,0.7405,0.7411,0.7424,0.7491,0.7546,0.7484,0.7485,0.75,0.76,0.7628,0.7637,0.7741,0.7677,0.7683,0.7687,0.7689,0.7904,0.7906,0,0,0,0,0,0,0.7241,0.7263,0.7421,0.7428,0.7328,0.7416,0.7431,0.7468,0.7545,0.7555,0.7501,0.75,0.7618,0.763,0.7642,0.773,0.7684,0.769,0.7694,0.7902,0.7904,0.7906,0,0,0,0,0,0,0.7236,0.7255,0.7416,0.7346,0.7367,0.7422,0.7463,0.7471,0.7499,0.7558,0.7568,0.752,0.7617,0.7633,0.7706,0.7735,0.7693,0.7699,0.79,0.7903,0.7905,0.7907,0,0,0,0,0,0,0.723,0.7253,0.728,0.7347,0.7371,0.7478,0.7464,0.7474,0.751,0.7511,0.7579,0.7588,0.7617,0.7696,0.7712,0.7743,0.7704,0.7898,0.7901,0.7904,0.7905,0.791,0.7914,0,0,0,0,0,0.7222,0.7276,0.7282,0.7301,0.7406,0.7479,0.7493,0.7525,0.7512,0.7541,0.7578,0.7586,0.7728,0.7703,0.7722,0.7755,0.7896,0.79,0.7904,0.7903,0.7909,0.7914,0,0,0,0,0,0,0.7213,0.7286,0.7292,0.7369,0.7418,0.7483,0.752,0.753,0.7583,0.7582,0.7618,0.7633,0.7705,0.7737,0.7708,0.7827,0.7811,0.7819,0.7804,0.781,0.7815,0.7806,0.7709,0,0,0,0,0,0.722,0.7273,0.7333,0.7396,0.7419,0.7465,0.7498,0.7518,0.757,0.7591,0.7634,0.7684,0.774,0.7777,0.7832,0.7909,0.7924,0.7941,0.7945,0.7948,0.7956,0.7999,0.8007,0.792,0.792,0.7919,0,0,0.7235,0.7281,0.7312,0.7395,0.7435,0.7489,0.7482,0.754,0.7581,0.76,0.7672,0.7705,0.7763,0.7839,0.7874,0.7868,0.7983,0.7954,0.7956,0.7961,0.8004,0.8012,0.802,0.7922,0.7922,0.7921,0,0,0.729,0.733,0.7387,0.7426,0.7486,0.7516,0.7529,0.7593,0.7615,0.7688,0.7702,0.7751,0.7847,0.7888,0.7922,0.7991,0.8001,0.8008,0.8032,0.8074,0.8081,0.8087,0.8113,0.8121,0.8014,0.8014,0.8014,0,0.7302,0.7384,0.7414,0.7472,0.7508,0.7525,0.7583,0.762,0.7695,0.772,0.7711,0.7832,0.7872,0.7958,0.7975,0.8001,0.8018,0.8001,0.8077,0.8084,0.809,0.8115,0.8125,0.8015,0.8014,0.8014,0.8014,0,0.7396,0.7452,0.7491,0.7562,0.7602,0.7659,0.7698,0.7735,0.7751,0.7781,0.7855,0.7904,0.7969,0.799,0.8006,0.8078,0.8072,0.807,0.8055,0.8099,0.8123,0.8133,0.8015,0.8015,0.8015,0.8015,0,0,0.7452,0.7537,0.7551,0.7584,0.765,0.7695,0.7752,0.7816,0.7847,0.7897,0.7947,0.8027,0.8025,0.8063,0.8083,0.812,0.8172,0.8113,0.8115,0.8124,0.8255,0.8258,0.8268,0.8178,0.818,0.8181,0.8251,0,0.7516,0.762,0.7648,0.7736,0.7789,0.7805,0.7855,0.7901,0.7931,0.798,0.8013,0.8069,0.8062,0.8085,0.8121,0.8158,0.8199,0.8153,0.8225,0.8228,0.8212,0.8281,0.8284,0.8348,0.826,0.8262,0.8263,0,0.7607,0.7658,0.7751,0.781,0.7833,0.7878,0.7938,0.7984,0.8037,0.8056,0.8097,0.8114,0.8175,0.8154,0.8239,0.8207,0.8237,0.8259,0.8263,0.8273,0.825,0.8294,0.8369,0.8379,0.8278,0.8277,0.8276,0,0.764,0.7732,0.78,0.7827,0.7897,0.7928,0.7959,0.801,0.8046,0.8098,0.8121,0.818,0.8212,0.8257,0.8289,0.8271,0.837,0.8353,0.8389,0.8388,0.8411,0.841,0.8493,0.8427,0.8427,0.8427,0.8427,0,0.771,0.7767,0.7816,0.7857,0.7921,0.7952,0.8014,0.8046,0.809,0.8139,0.8156,0.8201,0.8239,0.8289,0.8314,0.8381,0.8395,0.8412,0.8419,0.8412,0.841,0.8435,0.8432,0.843,0.8429,0.8429,0.8428,0,0.776,0.7794,0.7869,0.7929,0.7945,0.7989,0.8041,0.8082,0.8111,0.8172,0.8188,0.8234,0.8294,0.8329,0.8405,0.8421,0.8495,0.8499,0.8478,0.8481,0.8516,0.8512,0.862,0.8636,0.8557,0.8558,0.8558,0,0.7803,0.7847,0.7911,0.7944,0.7975,0.8029,0.8065,0.8097,0.8134,0.8196,0.823,0.829,0.8341,0.8435,0.8476,0.8533,0.854,0.8573,0.8549,0.8541,0.8542,0.854,0.8545,0.8578,0.8579,0.8579,0.858,0,0.7878,0.7893,0.7944,0.8002,0.8044,0.8091,0.8138,0.8164,0.8203,0.8244,0.8305,0.8344,0.842,0.8481,0.8541,0.8573,0.8584,0.8587,0.8598,0.8593,0.858,0.8589,0.8491,0.8585,0.8584,0.8584,0.8584,0.8583,0.7928,0.7967,0.8018,0.8075,0.8113,0.8155,0.8197,0.823,0.8282,0.8346,0.8361,0.8426,0.8476,0.8559,0.8592,0.8643,0.8637,0.8654,0.8658,0.8663,0.8664,0.8569,0.8654,0.8653,0.8653,0.8653,0.8653,0,0.8004,0.8037,0.8089,0.8153,0.8198,0.8201,0.8253,0.829,0.8346,0.8392,0.8441,0.8511,0.8569,0.8612,0.8672,0.8704,0.871,0.8719,0.8718,0.8725,0.8665,0.865,0.8713,0.8713,0.8713,0.8713,0.8713,0.8713,0.805,0.8117,0.8138,0.8224,0.8257,0.8319,0.8348,0.8388,0.8425,0.8502,0.855,0.8577,0.8623,0.8685,0.8738,0.875,0.8772,0.878,0.8792,0.8736,0.8729,0.8723,0.8709,0.8784,0.8784,0.8848,0.8849,0.8849]}]]